This demonstration page uses our WeatherBlox Daily Observations layout. Learn more.

Left ArrowRight Arrow

34.16533, -84.80231

Hourly Observations for July 11, 2016

Temp ( °F °C ) Dew Point ( °F °C ) Humidity (%) Winds ( mph kmh ) Pressure ( in mb ) Visibility ( mi km ) Precip ( " mm )
12:53 am 00:53 Clear 71 21.7 70 21.1 96 96 Calm 30.04 1017 10 16 0.00 0.00
1:53 am 01:53 Partly Cloudy 71 21.7 70 21.1 96 96 Calm 30.02 1017 10 16 0.00 0.00
2:53 am 02:53 Mostly Cloudy 71 21.7 69 20.6 94 94 Calm 30.02 1017 10 16 0.00 0.00
3:53 am 03:53 Clear 69 20.6 69 20.6 100 100 Calm 30.02 1017 10 16 0.00 0.00
4:53 am 04:53 Clear 68 20 68 20 100 100 Calm 30.01 1016 10 16 0.00 0.00
5:53 am 05:53 Clear 68 20 67 19.4 96 96 Calm 30.03 1017 10 16 0.00 0.00
6:10 am 06:10 Mostly Cloudy 68 20 67 19.4 96 96 Calm 30.06 1018 9 14 0.00 0.00
6:17 am 06:17 Mostly Cloudy 69 20.6 68 20 96 96 Calm 30.06 1018 9 14 0.00 0.00
6:25 am 06:25 Cloudy 69 20.6 68 20 96 96 Calm 30.06 1018 9 14 0.00 0.00
6:53 am 06:53 Cloudy 69 20.6 68 20 96 96 Calm 30.04 1017 10 16 0.00 0.00
7:24 am 07:24 Cloudy 70 21.1 69 20.6 97 97 Calm 30.06 1018 8 13 0.00 0.00
7:33 am 07:33 Cloudy with Mist and Fog 69 20.6 69 20.6 100 100 Calm 30.06 1018 3 4 0.00 0.00
7:50 am 07:50 Cloudy with Mist and Fog 70 21 70 21 100 100 SSW 3 6 30.09 1019 4 6 0.00 0.00
7:53 am 07:53 Cloudy with Mist and Fog 70 21.1 69 20.6 97 97 Calm 30.07 1018 5 8 0.00 0.00
8:53 am 08:53 Cloudy 71 21.7 69 20.6 94 94 Calm 30.09 1019 7 11 0.00 0.00
9:29 am 09:29 Cloudy with Mist and Fog 72 22.2 70 21.1 94 94 Calm 30.09 1019 6 10 0.00 0.00
9:51 am 09:51 Cloudy with Mist and Fog 72 22 70 21 94 94 Calm 30.09 1019 6 10 0.00 0.00
9:53 am 09:53 Cloudy with Mist and Fog 73 22.8 70 21.1 90 90 Calm 30.10 1019 6 10 0.00 0.00
10:50 am 10:50 Partly Cloudy 75 24 70 21 83 83 VRB 3 6 30.12 1020 9 14 0.00 0.00
10:53 am 10:53 Mostly Sunny 76 24.4 70 21.1 82 82 VRB 3 6 30.10 1019 10 16 0.00 0.00
11:53 am 11:53 Sunny 79 26.1 70 21.1 74 74 Calm 30.11 1020 10 16 0.00 0.00
12:53 pm 12:53 Sunny 83 28.3 70 21.1 65 65 Calm 30.09 1019 10 16 0.00 0.00
1:53 pm 13:53 Sunny 85 29.4 71 21.7 63 63 VRB 3 6 30.07 1018 10 16 0.00 0.00
2:53 pm 14:53 Mostly Cloudy 86 30 71 21.7 61 61 VRB 6 9 30.04 1017 10 16 0.00 0.00
3:53 pm 15:53 Mostly Sunny 87 30.6 70 21.1 57 57 Calm 30.02 1017 10 16 0.00 0.00
4:53 pm 16:53 Mostly Sunny 87 30.6 68 20 53 53 Calm 30.01 1016 10 16 0.00 0.00
5:53 pm 17:53 Sunny with Nearby Thunderstorms 90 32.2 69 20.6 50 50 Calm 29.99 1016 10 16 0.00 0.00
6:15 pm 18:15 Mostly Cloudy with Thunderstorms 80 26.7 70 21.1 71 71 S 18 30 30.00 1016 10 16 0.00 0.00
6:53 pm 18:53 Cloudy with Thunderstorms 74 23.3 69 20.6 85 85 VRB 5 7 30.06 1018 10 16 0.01 0.25
7:33 pm 19:33 Cloudy with Thunderstorms 72 22.2 70 21.1 94 94 Calm 30.09 1019 3 4 0.07 1.78
7:38 pm 19:38 Cloudy with Nearby Thunderstorms 71 21.7 70 21.1 96 96 Calm 30.06 1018 3 5 0.09 2.29
7:53 pm 19:53 Mostly Cloudy with Light Rain 72 22.2 70 21.1 94 94 SE 5 7 30.06 1018 10 16 0.10 2.54
8:06 pm 20:06 Partly Cloudy with Thunderstorms 72 22.2 70 21.1 94 94 Calm 30.06 1018 10 16 0.00 0.03
8:36 pm 20:36 Sunny 72 22.2 70 21.1 94 94 Calm 30.06 1018 10 16 0.00 0.03
8:53 pm 20:53 Partly Cloudy 72 22.2 71 21.7 97 97 Calm 30.05 1018 10 16 0.00 0.03
9:53 pm 21:53 Mostly Clear 72 22.2 71 21.7 97 97 Calm 30.06 1018 10 16 0.00 0.00
10:53 pm 22:53 Clear 72 22.2 71 21.7 97 97 Calm 30.07 1018 10 16 0.00 0.00
11:53 pm 23:53 Clear 72 22.2 70 21.1 94 94 SSE 6 9 30.06 1018 10 16 0.00 0.00

Powered by AerisWeather